Weather History for KRUE - August, 2013

Change the Weather History Date:

Sunday, August 25, 2013

  Actual Average (KHOT) Record (KHOT)
Temperature  
Mean Temperature 83 °F -  
Max Temperature 95 °F 93 °F 103 °F (1978)
Min Temperature 73 °F 68 °F 53 °F (1966)
Cooling Degree Days 18    
Growing Degree Days 33 (Base 50)    
Moisture  
Dew Point 71 °F    
Average Humidity 65    
Maximum Humidity 91    
Minimum Humidity 40    
Precipitation  
Precipitation 0.00 in - - ()
Sea Level Pressure  
Sea Level Pressure 30.15 in    
Wind  
Wind Speed 3 mph (ESE)    
Max Wind Speed 6 mph    
Max Gust Speed -    
Visibility 9 miles    
Events      
Averages and records for this station are not official NWS values.
T = Trace of Precipitation, MM = Missing Value Source: NWS Daily Summary

Daily Weather History Graph

Daily Weather History Graph

Search for Another Location

Airport or City:

Trip Planner

Search our weather history database for the weather conditions in past years. The results will help you decide how hot, cold, wet, or windy it might be!

Date:

Astronomy

Aug. 25, 2013 Rise Set
Actual Time 6:39 AM CDT 7:48 PM CDT
Civil Twilight 6:13 AM CDT 8:14 PM CDT
Nautical Twilight 5:42 AM CDT 8:45 PM CDT
Astronomical Twilight 5:09 AM CDT 9:18 PM CDT
Moon 10:33 PM CDT (8/25) 11:29 AM CDT (8/25)
Length of Visible Light 14h 01m
Length of Day
13h 08m
Waning Gibbous, 75% of the Moon is Illuminated
Aug 25
Waning Gibbous
Aug 28
Last Quarter
Sep 5
New
Sep 12
First Quarter
Sep 19
Full

Hourly Weather History & Observations

Time (CDT) Temp. Heat Index Dew Point Humidity Pressure Visibility Wind Dir Wind Speed Gust Speed Precip Events Conditions
12:53 AM 82.0 °F 85.9 °F 70.0 °F 67% 30.12 in 10.0 mi East 4.6 mph - N/A   Clear
1:53 AM 81.0 °F 84.9 °F 71.1 °F 72% 30.11 in 10.0 mi East 3.5 mph - N/A   Clear
2:53 AM 80.1 °F 83.6 °F 71.1 °F 74% 30.12 in 9.0 mi East 5.8 mph - N/A   Clear
3:53 AM 79.0 °F - 72.0 °F 79% 30.12 in 9.0 mi East 3.5 mph - N/A   Clear
4:53 AM 78.1 °F - 71.1 °F 79% 30.14 in 9.0 mi Calm Calm - N/A   Clear
5:53 AM 75.0 °F - 71.1 °F 87% 30.16 in 7.0 mi Calm Calm - N/A   Clear
6:53 AM 73.9 °F - 71.1 °F 91% 30.18 in 4.0 mi Calm Calm - N/A   Clear
7:53 AM 78.1 °F - 72.0 °F 81% 30.19 in 6.0 mi Calm Calm - N/A   Haze
8:53 AM 81.0 °F 85.8 °F 73.0 °F 77% 30.19 in 8.0 mi East 3.5 mph - N/A   Clear
9:53 AM 84.0 °F 90.2 °F 73.0 °F 69% 30.19 in 10.0 mi East 3.5 mph - N/A   Clear
10:53 AM 87.1 °F 94.5 °F 73.0 °F 63% 30.19 in 10.0 mi Calm Calm - N/A   Clear
11:53 AM 90.0 °F 95.4 °F 70.0 °F 52% 30.18 in 10.0 mi SW 3.5 mph - N/A   Clear
12:53 PM 89.1 °F 96.0 °F 72.0 °F 57% 30.16 in 10.0 mi SW 3.5 mph - N/A   Scattered Clouds
1:53 PM 93.0 °F 100.1 °F 71.1 °F 49% 30.15 in 10.0 mi Variable 5.8 mph - N/A   Partly Cloudy
2:53 PM 93.0 °F 97.4 °F 68.0 °F 44% 30.14 in 10.0 mi Variable 4.6 mph - N/A   Scattered Clouds
3:53 PM 93.9 °F 97.0 °F 66.0 °F 40% 30.12 in 10.0 mi Variable 4.6 mph - N/A   Partly Cloudy
4:53 PM 93.0 °F 99.0 °F 70.0 °F 47% 30.12 in 10.0 mi Variable 4.6 mph - N/A   Scattered Clouds
5:53 PM 93.0 °F 97.9 °F 69.1 °F 45% 30.11 in 10.0 mi Calm Calm - N/A   Clear
6:53 PM 91.0 °F 95.6 °F 69.1 °F 48% 30.11 in 10.0 mi Calm Calm - N/A   Clear
7:53 PM 84.9 °F 89.4 °F 70.0 °F 61% 30.12 in 10.0 mi Calm Calm - N/A   Clear
8:53 PM 82.0 °F 86.3 °F 71.1 °F 69% 30.14 in 10.0 mi Calm Calm - N/A   Clear
9:53 PM 82.9 °F 87.5 °F 71.1 °F 67% 30.17 in 10.0 mi Calm Calm - N/A   Clear
10:53 PM 82.0 °F 86.7 °F 72.0 °F 71% 30.18 in 10.0 mi Calm Calm - N/A   Clear
11:53 PM 81.0 °F 85.8 °F 73.0 °F 77% 30.18 in 10.0 mi Variable 3.5 mph - N/A   Clear